Location: Unspecified
(0.0000°N, 0.0000°E)
Time: 09:49:40
(UTC+00:00)

MIDAS 4 DEB - Pass Details

Date: 13 November 2025
Orbit: 3271 x 3959 km, 95.8° (Epoch: 26 July)

Event Time Altitude Azimuth Distance (km) Brightness Sun altitude
Exits shadow 23:01:55 29° 278° (W) 5,236 ? -69.0°
Drops below altitude 10° 23:16:19 10° 228° (SW) 6,942 ? -70.5°
Sets 23:22:17 0° 217° (SW) 8,047 ? -71.0°
